{"data":{"norad_id":60426,"intl_designator":"2024-144B","name":"STARLINK-32226","alt_names":[],"object_type":"PAYLOAD","status":"ACTIVE","operator":null,"country":"US","launch_date":"2024-08-12","launch_site_code":"AFETR","launch_vehicle":null,"mission":null,"orbit_class":"UNKNOWN","rcs_meters":null,"size_class":null,"mass_kg":null,"dimensions":null,"purposes":["comms"],"wikipedia_slug":null,"has_3d_model":false,"image_url":null,"decayed_at":null,"tle_current":{"epoch":"2026-09-21T19:03:06.321024Z","epoch_age_seconds":73792,"freshness":"FRESH","line1":"1 60426U 24144B   26264.79382316 -.00002469  00000+0 -61952-4 0  9991","line2":"2 60426  53.1606  23.4092 0001019  77.5924 282.5192 15.34404454119370","mean_motion":15.34404454,"eccentricity":0.0001019,"inclination_deg":53.1606,"raan_deg":23.4092,"arg_perigee_deg":77.5924,"mean_anomaly_deg":282.5192,"bstar":-6.1952e-5,"rev_number":11937,"period_min":93.847485664298,"perigee_km":461.99292174098,"apogee_km":463.38708228399,"semimajor_km":6840.8270020125,"source":"CELESTRAK","updated_at":"2026-09-22T09:00:49.233489Z"}}}